SBI116 UWUU-USTR

Flight info

Callsign SBI116
Flight time 1h 0m
Altitude 35000
Route IPROK3N IPROK L749 TUPKI T797 BUKOS BUKOS1M
Aircraft B738/M-SDE3/L

Departure

Time 2026-04-30 13:46
Airport Ufa International Airport (UWUU)

Arrival

Time 2026-04-30 14:46
Airport Roshchino International Airport (USTR)
Time Latitude Longitude Altitude Speed Heading
2026-04-30 13:02 54.56676 55.88123 449 ft 0 kts 104°
2026-04-30 13:32 54.56682 55.88075 449 ft 2 kts 102°
2026-04-30 13:33 54.56688 55.88019 449 ft 2 kts 98°
2026-04-30 13:33 54.56692 55.87963 449 ft 2 kts 98°
2026-04-30 13:34 54.56695 55.87945 449 ft 0 kts 140°
2026-04-30 13:35 54.56657 55.87982 449 ft 6 kts 155°
2026-04-30 13:36 54.56586 55.88045 449 ft 7 kts 150°
2026-04-30 13:36 54.56541 55.88088 449 ft 8 kts 150°
2026-04-30 13:36 54.56464 55.88161 449 ft 7 kts 154°
2026-04-30 13:37 54.56418 55.88147 449 ft 7 kts 224°
2026-04-30 13:37 54.56369 55.88005 449 ft 7 kts 241°
2026-04-30 13:38 54.56341 55.87921 449 ft 0 kts 240°
2026-04-30 13:38 54.56341 55.87918 449 ft 2 kts 240°
2026-04-30 13:38 54.56324 55.87868 450 ft 2 kts 240°
2026-04-30 13:39 54.56274 55.87716 449 ft 9 kts 240°
2026-04-30 13:39 54.56215 55.87539 449 ft 8 kts 240°
2026-04-30 13:40 54.56187 55.87454 449 ft 8 kts 240°
2026-04-30 13:40 54.56161 55.87371 449 ft 8 kts 241°
2026-04-30 13:40 54.56135 55.87291 449 ft 8 kts 241°
2026-04-30 13:40 54.56110 55.87214 449 ft 7 kts 239°
2026-04-30 13:41 54.56084 55.87140 449 ft 7 kts 239°
2026-04-30 13:41 54.56061 55.87068 449 ft 7 kts 242°
2026-04-30 13:41 54.56038 55.86996 449 ft 7 kts 240°
2026-04-30 13:41 54.56004 55.86893 449 ft 11 kts 240°
2026-04-30 13:42 54.55968 55.86784 449 ft 10 kts 240°
2026-04-30 13:42 54.55933 55.86678 449 ft 10 kts 240°
2026-04-30 13:42 54.55891 55.86550 449 ft 0 kts 240°
2026-04-30 13:44 54.55889 55.86544 449 ft 4 kts 240°
2026-04-30 13:44 54.55863 55.86465 450 ft 8 kts 240°
2026-04-30 13:44 54.55845 55.86375 449 ft 8 kts 286°
2026-04-30 13:45 54.55863 55.86338 449 ft 0 kts 326°
2026-04-30 13:45 54.55931 55.86269 450 ft 32 kts 330°
2026-04-30 13:45 54.56340 55.85875 451 ft 102 kts 330°
2026-04-30 13:46 54.57137 55.85115 453 ft 158 kts 333°
2026-04-30 13:46 54.58155 55.84112 996 ft 166 kts 327°
2026-04-30 13:46 54.59116 55.83083 1914 ft 164 kts 332°
2026-04-30 13:46 54.60160 55.82124 2474 ft 183 kts 333°
2026-04-30 13:47 54.61376 55.81012 2752 ft 210 kts 332°
2026-04-30 13:47 54.62729 55.79752 3064 ft 229 kts 332°
2026-04-30 13:47 54.64145 55.78411 3629 ft 237 kts 332°
2026-04-30 13:47 54.65652 55.76969 3995 ft 255 kts 331°
2026-04-30 13:48 54.67224 55.75449 4784 ft 260 kts 331°
2026-04-30 13:48 54.68809 55.73906 5666 ft 263 kts 330°
2026-04-30 13:48 54.70414 55.72336 6516 ft 267 kts 330°
2026-04-30 13:48 54.72039 55.70743 7286 ft 271 kts 330°
2026-04-30 13:49 54.73714 55.69167 8007 ft 278 kts 337°
2026-04-30 13:49 54.75627 55.68666 8741 ft 284 kts
2026-04-30 13:49 54.77469 55.69902 9481 ft 290 kts 38°
2026-04-30 13:49 54.78819 55.72498 10199 ft 294 kts 55°
2026-04-30 13:50 54.80017 55.75485 10553 ft 313 kts 57°
2026-04-30 13:50 54.82610 55.82184 11166 ft 350 kts 57°
2026-04-30 13:50 54.83983 55.85722 11819 ft 356 kts 57°
2026-04-30 13:51 54.85377 55.89295 12535 ft 360 kts 56°
2026-04-30 13:51 54.86792 55.92910 13220 ft 365 kts 56°
2026-04-30 13:51 54.88231 55.96578 13910 ft 370 kts 56°
2026-04-30 13:51 54.89687 56.00291 14499 ft 375 kts 57°
2026-04-30 13:52 54.91164 56.04058 15097 ft 380 kts 57°
2026-04-30 13:52 54.92662 56.07885 15686 ft 385 kts 57°
2026-04-30 13:52 54.94178 56.11760 16271 ft 390 kts 58°
2026-04-30 13:52 54.95713 56.15694 16858 ft 395 kts 58°
2026-04-30 13:53 54.97266 56.19679 17412 ft 401 kts 59°
2026-04-30 13:53 54.98838 56.23718 17997 ft 406 kts 59°
2026-04-30 13:53 55.00429 56.27811 18544 ft 410 kts 59°
2026-04-30 13:53 55.02013 56.31894 19057 ft 414 kts 59°
2026-04-30 13:54 55.03632 56.36074 19568 ft 418 kts 59°
2026-04-30 13:54 55.05260 56.40297 20091 ft 422 kts 60°
2026-04-30 13:54 55.06902 56.44570 20562 ft 426 kts 59°
2026-04-30 13:54 55.08534 56.48905 21050 ft 428 kts 64°
2026-04-30 13:55 55.09596 56.53694 21482 ft 421 kts 84°
2026-04-30 13:55 55.10083 56.58727 22021 ft 422 kts 86°
2026-04-30 13:55 55.10572 56.63798 22483 ft 426 kts 85°
2026-04-30 13:55 55.11077 56.68917 22941 ft 430 kts 85°
2026-04-30 13:56 55.11598 56.74086 23416 ft 434 kts 85°
2026-04-30 13:56 55.12130 56.79298 23829 ft 437 kts 85°
2026-04-30 13:56 55.12670 56.84550 24204 ft 441 kts 85°
2026-04-30 13:56 55.13213 56.89830 24593 ft 443 kts 85°
2026-04-30 13:57 55.13759 56.95148 24959 ft 446 kts 85°
2026-04-30 13:57 55.14305 57.00494 25320 ft 448 kts 85°
2026-04-30 13:57 55.14852 57.05881 25673 ft 451 kts 86°
2026-04-30 13:57 55.15399 57.11296 26008 ft 454 kts 86°
2026-04-30 13:58 55.15947 57.16749 26338 ft 457 kts 86°
2026-04-30 13:58 55.17045 57.27745 26985 ft 462 kts 86°
2026-04-30 13:58 55.17595 57.33292 27294 ft 464 kts 86°
2026-04-30 13:59 55.18144 57.38867 27603 ft 466 kts 86°
2026-04-30 13:59 55.18694 57.44473 27891 ft 469 kts 87°
2026-04-30 13:59 55.19245 57.50113 28176 ft 471 kts 87°
2026-04-30 13:59 55.19794 57.55776 28393 ft 475 kts 87°
2026-04-30 14:00 55.20347 57.61507 28549 ft 479 kts 87°
2026-04-30 14:00 55.21455 57.73051 29163 ft 482 kts 87°
2026-04-30 14:00 55.22008 57.78848 29445 ft 484 kts 87°
2026-04-30 14:01 55.22560 57.84683 29700 ft 487 kts 87°
2026-04-30 14:01 55.23112 57.90540 29964 ft 489 kts 88°
2026-04-30 14:01 55.23663 57.96426 30205 ft 491 kts 88°
2026-04-30 14:01 55.24216 58.02344 30401 ft 493 kts 88°
2026-04-30 14:02 55.24766 58.08277 30642 ft 494 kts 88°
2026-04-30 14:02 55.25314 58.14213 30903 ft 494 kts 88°
2026-04-30 14:02 55.25861 58.20160 31154 ft 494 kts 88°
2026-04-30 14:02 55.26407 58.26106 31470 ft 494 kts 88°
2026-04-30 14:03 55.26948 58.32040 31808 ft 492 kts 88°
2026-04-30 14:03 55.27486 58.37959 32129 ft 491 kts 88°
2026-04-30 14:03 55.28021 58.43875 32399 ft 491 kts 88°
2026-04-30 14:03 55.28552 58.49801 32667 ft 491 kts 89°
2026-04-30 14:04 55.29080 58.55718 32954 ft 491 kts 89°
2026-04-30 14:04 55.29597 58.61548 33255 ft 490 kts 89°
2026-04-30 14:04 55.30117 58.67446 33518 ft 489 kts 89°
2026-04-30 14:04 55.30635 58.73361 33700 ft 491 kts 89°
2026-04-30 14:05 55.31151 58.79296 33869 ft 493 kts 89°
2026-04-30 14:05 55.31666 58.85246 34155 ft 492 kts 89°
2026-04-30 14:05 55.32179 58.91171 34438 ft 490 kts 89°
2026-04-30 14:05 55.32686 58.97077 34663 ft 489 kts 89°
2026-04-30 14:06 55.33189 59.02988 34861 ft 490 kts 89°
2026-04-30 14:06 55.34188 59.14847 35076 ft 493 kts 89°
2026-04-30 14:07 55.35676 59.32735 35068 ft 491 kts 89°
2026-04-30 14:08 55.37127 59.50499 35079 ft 489 kts 90°
2026-04-30 14:08 55.38548 59.68230 35098 ft 488 kts 90°
2026-04-30 14:09 55.39384 59.80048 35080 ft 484 kts 94°
2026-04-30 14:10 55.39821 59.97714 35086 ft 482 kts 97°
2026-04-30 14:10 55.40109 60.09512 35100 ft 484 kts 96°
2026-04-30 14:11 55.40426 60.21375 35104 ft 486 kts 96°
2026-04-30 14:11 55.40743 60.33294 35095 ft 488 kts 96°
2026-04-30 14:12 55.41052 60.45254 35083 ft 490 kts 97°
2026-04-30 14:12 55.41349 60.57230 35091 ft 490 kts 97°
2026-04-30 14:13 55.41633 60.69224 35102 ft 490 kts 97°
2026-04-30 14:13 55.41907 60.81225 35096 ft 491 kts 97°
2026-04-30 14:14 55.42866 60.93271 35104 ft 504 kts 85°
2026-04-30 14:14 55.44526 61.05279 35078 ft 505 kts 84°
2026-04-30 14:15 55.46174 61.17270 35099 ft 503 kts 85°
2026-04-30 14:15 55.47748 61.29259 35103 ft 501 kts 85°
2026-04-30 14:16 55.49282 61.41222 35105 ft 501 kts 85°
2026-04-30 14:16 55.50805 61.53201 35108 ft 501 kts 85°
2026-04-30 14:17 55.52322 61.65209 35088 ft 501 kts 85°
2026-04-30 14:17 55.53829 61.77221 35111 ft 502 kts 85°
2026-04-30 14:18 55.55329 61.89276 35119 ft 504 kts 85°
2026-04-30 14:18 55.58613 62.07114 35122 ft 522 kts 65°
2026-04-30 14:19 55.62999 62.17466 35114 ft 530 kts 50°
2026-04-30 14:19 55.65475 62.22310 35098 ft 531 kts 50°
2026-04-30 14:20 55.70386 62.32080 35099 ft 530 kts 51°
2026-04-30 14:20 55.72807 62.37062 34614 ft 537 kts 52°
2026-04-30 14:20 55.77674 62.47147 33335 ft 537 kts 52°
2026-04-30 14:21 55.80095 62.52152 32927 ft 531 kts 52°
2026-04-30 14:21 55.82492 62.57114 32468 ft 527 kts 52°
2026-04-30 14:21 55.87219 62.66923 31618 ft 517 kts 52°
2026-04-30 14:22 55.89543 62.71766 31192 ft 513 kts 52°
2026-04-30 14:22 55.93371 62.79766 30492 ft 507 kts 52°
2026-04-30 14:22 55.95647 62.84536 30074 ft 503 kts 52°
2026-04-30 14:23 56.00141 62.93983 29152 ft 494 kts 52°
2026-04-30 14:23 56.04536 63.03257 28299 ft 484 kts 52°
2026-04-30 14:24 56.08848 63.12393 27469 ft 477 kts 52°
2026-04-30 14:24 56.10980 63.16923 27033 ft 474 kts 52°
2026-04-30 14:25 56.15195 63.25903 26189 ft 467 kts 52°
2026-04-30 14:25 56.19341 63.34770 25365 ft 461 kts 51°
2026-04-30 14:26 56.23432 63.43546 24539 ft 455 kts 51°
2026-04-30 14:26 56.25454 63.47897 24151 ft 452 kts 51°
2026-04-30 14:26 56.29634 63.56268 23257 ft 448 kts 44°
2026-04-30 14:27 56.31885 63.60124 22815 ft 444 kts 43°
2026-04-30 14:27 56.34148 63.63887 22401 ft 441 kts 42°
2026-04-30 14:27 56.36393 63.67609 22025 ft 437 kts 42°
2026-04-30 14:28 56.40802 63.75026 21217 ft 430 kts 43°
2026-04-30 14:28 56.42970 63.78724 20806 ft 427 kts 43°
2026-04-30 14:28 56.45116 63.82407 20424 ft 424 kts 43°
2026-04-30 14:28 56.47242 63.86070 20049 ft 421 kts 44°
2026-04-30 14:29 56.51447 63.93344 19295 ft 416 kts 44°
2026-04-30 14:29 56.55605 64.00556 18545 ft 411 kts 44°
2026-04-30 14:30 56.61745 64.11249 17325 ft 404 kts 44°
2026-04-30 14:31 56.65763 64.18274 16558 ft 398 kts 44°
2026-04-30 14:31 56.69715 64.25203 15837 ft 391 kts 44°
2026-04-30 14:31 56.71665 64.28629 15475 ft 389 kts 44°
2026-04-30 14:32 56.75522 64.35424 14757 ft 383 kts 44°
2026-04-30 14:32 56.77404 64.38747 14402 ft 381 kts 44°
2026-04-30 14:32 56.79324 64.42141 14047 ft 378 kts 44°
2026-04-30 14:33 56.81180 64.45427 13658 ft 375 kts 44°
2026-04-30 14:33 56.84887 64.52007 12897 ft 368 kts 44°
2026-04-30 14:33 56.86712 64.55252 12543 ft 364 kts 44°
2026-04-30 14:34 56.88514 64.58459 12188 ft 360 kts 44°
2026-04-30 14:34 56.90299 64.61642 11834 ft 356 kts 44°
2026-04-30 14:34 56.92075 64.64773 11522 ft 352 kts 43°
2026-04-30 14:34 56.93859 64.67788 11204 ft 348 kts 42°
2026-04-30 14:35 56.97416 64.73705 10558 ft 341 kts 42°
2026-04-30 14:35 56.99146 64.76589 10419 ft 332 kts 42°
2026-04-30 14:35 57.00827 64.79403 10270 ft 323 kts 42°
2026-04-30 14:36 57.02464 64.82154 10134 ft 315 kts 42°
2026-04-30 14:36 57.04049 64.84824 10096 ft 303 kts 42°
2026-04-30 14:36 57.05596 64.87434 9630 ft 307 kts 42°
2026-04-30 14:36 57.07165 64.90084 9302 ft 307 kts 42°
2026-04-30 14:37 57.08734 64.92739 8971 ft 306 kts 42°
2026-04-30 14:37 57.10293 64.95382 8664 ft 304 kts 42°
2026-04-30 14:37 57.11843 64.98012 8359 ft 302 kts 43°
2026-04-30 14:37 57.13384 65.00631 8058 ft 301 kts 43°
2026-04-30 14:38 57.14918 65.03240 7761 ft 299 kts 43°
2026-04-30 14:38 57.16441 65.05836 7462 ft 298 kts 43°
2026-04-30 14:38 57.17957 65.08421 7165 ft 296 kts 43°
2026-04-30 14:38 57.19466 65.10998 6879 ft 295 kts 43°
2026-04-30 14:39 57.20960 65.13551 6622 ft 292 kts 44°
2026-04-30 14:39 57.22444 65.16091 6378 ft 289 kts 44°
2026-04-30 14:39 57.23910 65.18604 6094 ft 286 kts 44°
2026-04-30 14:40 57.26804 65.23572 5564 ft 281 kts 44°
2026-04-30 14:40 57.28229 65.26022 5322 ft 279 kts 44°
2026-04-30 14:40 57.29641 65.28450 5059 ft 276 kts 44°
2026-04-30 14:40 57.31040 65.30861 4793 ft 274 kts 44°
2026-04-30 14:41 57.32427 65.33253 4531 ft 271 kts 44°
2026-04-30 14:41 57.33784 65.35657 4254 ft 269 kts 50°
2026-04-30 14:41 57.34609 65.38647 3982 ft 258 kts 82°
2026-04-30 14:41 57.34522 65.41891 3771 ft 251 kts 108°
2026-04-30 14:42 57.33775 65.44728 3590 ft 245 kts 130°
2026-04-30 14:42 57.32596 65.46858 3473 ft 236 kts 139°
2026-04-30 14:42 57.31377 65.48893 3335 ft 230 kts 139°
2026-04-30 14:42 57.30138 65.50591 3190 ft 222 kts 160°
2026-04-30 14:43 57.28656 65.50724 2954 ft 215 kts 200°
2026-04-30 14:43 57.27469 65.49164 2688 ft 207 kts 225°
2026-04-30 14:43 57.26451 65.47310 2419 ft 203 kts 226°
2026-04-30 14:43 57.25494 65.45442 2169 ft 197 kts 228°
2026-04-30 14:44 57.24585 65.43607 1917 ft 191 kts 228°
2026-04-30 14:44 57.23705 65.41827 1684 ft 184 kts 228°
2026-04-30 14:44 57.22859 65.40119 1488 ft 176 kts 229°
2026-04-30 14:44 57.22061 65.38504 1261 ft 163 kts 229°
2026-04-30 14:45 57.21316 65.36998 1039 ft 156 kts 229°
2026-04-30 14:45 57.20582 65.35532 819 ft 154 kts 228°
2026-04-30 14:45 57.19857 65.34073 667 ft 156 kts 229°
2026-04-30 14:45 57.19125 65.32586 490 ft 156 kts 230°
2026-04-30 14:46 57.18406 65.31112 364 ft 149 kts 226°
2026-04-30 14:46 57.17823 65.29932 378 ft 94 kts 227°
2026-04-30 14:46 57.17559 65.29401 385 ft 20 kts 227°
2026-04-30 14:46 57.17487 65.29347 385 ft 9 kts 149°
2026-04-30 14:47 57.17440 65.29419 386 ft 0 kts 138°
2026-04-30 14:47 57.17414 65.29460 386 ft 12 kts 139°
2026-04-30 14:48 57.17394 65.29602 385 ft 17 kts 57°
2026-04-30 14:48 57.17520 65.29864 383 ft 37 kts 49°
2026-04-30 14:48 57.17702 65.30235 379 ft 39 kts 47°
2026-04-30 14:48 57.17882 65.30600 374 ft 38 kts 47°
2026-04-30 14:49 57.18057 65.30954 369 ft 37 kts 47°
2026-04-30 14:49 57.18229 65.31302 360 ft 37 kts 47°
2026-04-30 14:49 57.18401 65.31650 353 ft 36 kts 48°
2026-04-30 14:49 57.18457 65.31930 338 ft 24 kts 88°
2026-04-30 14:50 57.18469 65.32591 327 ft 26 kts 88°
2026-04-30 14:50 57.18475 65.32917 331 ft 25 kts 89°
2026-04-30 14:51 57.18609 65.33351 337 ft 12 kts 58°
2026-04-30 14:51 57.18619 65.33497 339 ft 11 kts 91°
2026-04-30 14:51 57.18545 65.33733 338 ft 11 kts 134°
2026-04-30 14:52 57.18492 65.33833 338 ft 12 kts 135°
2026-04-30 14:52 57.18329 65.34134 339 ft 17 kts 135°
2026-04-30 14:52 57.18247 65.34286 338 ft 16 kts 135°
2026-04-30 14:53 57.18113 65.34534 338 ft 3 kts 135°
2026-04-30 14:53 57.18098 65.34562 339 ft 3 kts 135°
2026-04-30 14:54 57.18063 65.34649 335 ft 6 kts 89°
2026-04-30 14:54 57.18103 65.34746 337 ft 1 kts 45°
2026-04-30 14:55 57.18104 65.34748 339 ft 0 kts 45°